Flag Weather past 2 weeks in Lakewood, Colorado, U.S.A.

Now
29 °F

Light snow. Ice fog.


Feels Like: 23 °F
Forecast: 29 / 52 °F
Wind: 6 mph from Northeast

Location: Centennial Airport

Current Time: Nov 26, 2014 at 1:01:21 AM

Latest Report: Nov 25, 2014 at 11:53 PM


Visibility: 3 mi

Pressure: 30.16 "Hg

Humidity: 89%

Dew point: 26 °F

Location of LakewoodLocation

Historic Weather in Lakewood — Graph

°F

Lakewood temperature yesterday

Maximum temperature yesterday: 45 °F (at 11:53 AM)
Minimum temperature yesterday: 20 °F (at 2:53 AM)
Average temperature yesterday: 35 °F

Past Weeks' High & Low Weather Summary

 TemperatureHumidityPressure
High62 °F (Nov 22, 12:53 PM)96% (Nov 23, 3:55 PM)30.77 "Hg (Nov 23, 3:55 PM)
Low-7 °F (Nov 13, 12:53 AM)14% (Nov 22, 12:53 PM)29.46 "Hg (Nov 23, 12:53 AM)
Average25 °F57%30.14 "Hg
* Reported Nov 10 11:53 PM — Nov 25 11:53 PM, Lakewood, Weather by CustomWeather, © 2014

Note: Actual official high and low records may vary slightly from our data, if they occured in-between our weather recording intervals... More about our weather records

Advertising

Lakewood weather history for previous 24 hours

 ConditionsComfort  
Time TempWeatherWind HumidityBarometerVisibility
11:53 PM
Nov 25
29 °FLight snow. Ice fog.6 mph89%30.16 "Hg3 mi
10:53 PM30 °FMostly cloudy.9 mph82%30.16 "Hg10 mi
9:53 PM32 °FPassing clouds.12 mph88%30.09 "Hg10 mi
8:53 PM44 °FPassing clouds.23 mph41%29.98 "Hg10 mi
7:53 PM41 °FPassing clouds.13 mph45%29.98 "Hg10 mi
6:53 PM42 °FPartly cloudy.16 mph43%29.98 "Hg10 mi
5:53 PM43 °FPartly cloudy.16 mph42%29.94 "Hg10 mi
4:53 PM43 °FPartly cloudy.18 mph40%29.98 "Hg10 mi
3:53 PM45 °FBroken clouds.24 mph35%29.96 "Hg10 mi
2:53 PM45 °FBroken clouds.18 mph33%29.95 "Hg10 mi
1:53 PM45 °FBroken clouds.16 mph33%29.93 "Hg10 mi
12:53 PM45 °FBroken clouds.15 mph34%29.93 "Hg10 mi
11:53 AM45 °FBroken clouds.15 mph27%29.97 "Hg10 mi
10:53 AM41 °FBroken clouds.13 mph30%30.01 "Hg10 mi
9:53 AM39 °FPartly sunny.17 mph31%30.04 "Hg10 mi
8:53 AM34 °FPartly sunny.13 mph35%30.05 "Hg10 mi
7:53 AM32 °FPartly sunny.13 mph36%30.08 "Hg10 mi
6:53 AM26 °FPassing clouds.5 mph52%30.14 "Hg10 mi
5:53 AM33 °FPassing clouds.10 mph29%30.13 "Hg10 mi
4:53 AM25 °FPassing clouds.8 mph46%30.18 "Hg10 mi
3:53 AM23 °FPassing clouds.10 mph48%30.22 "Hg10 mi
2:53 AM20 °FPassing clouds.6 mph57%30.26 "Hg10 mi
1:53 AM22 °FPassing clouds.8 mph52%30.23 "Hg10 mi
Weather by CustomWeather, © 2014

See weather overviewHow to use our weather pages